This is the latest recevied weather packets stored in our database for station/object W0CHP-13. If no packets are shown the sender has not sent any weather packets the latest 10 day(s).
| Time | Temp. | Humidity | Pressure | Rain* | Wind** | Luminosity | Snow |
|---|---|---|---|---|---|---|---|
| 1788197417 | 31.11° C | 65% | 1009.6 hPa | 0 mm | - | 338 W/m² | - |
| 1788196815 | 31.11° C | 65% | 1009.6 hPa | 0 mm | - | 248 W/m² | - |
| 1788196217 | 31.11° C | 65% | 1009.6 hPa | 0 mm | - | 325 W/m² | - |
| 1788195616 | 31.11° C | 65% | 1009.6 hPa | 0 mm | - | 446 W/m² | - |
| 1788195018 | 30.56° C | 67% | 1009.6 hPa | 0 mm | - | 556 W/m² | - |
| 1788194416 | 30° C | 66% | 1009.6 hPa | 0 mm | - | 750 W/m² | - |
| 1788193817 | 30° C | 68% | 1009.5 hPa | 0 mm | - | 680 W/m² | - |
| 1788193216 | 28.89° C | 71% | 1009.5 hPa | 0 mm | - | 586 W/m² | - |
| 1788192619 | 28.89° C | 70% | 1009.6 hPa | 0 mm | - | 214 W/m² | - |
| 1788192015 | 28.89° C | 70% | 1009.2 hPa | 0 mm | - | 291 W/m² | - |
| 1788191417 | 28.33° C | 72% | 1009.2 hPa | 0 mm | - | 382 W/m² | - |
| 1788190816 | 28.33° C | 72% | 1009.2 hPa | 0 mm | - | 312 W/m² | - |
| 1788190218 | 28.33° C | 71% | 1008.9 hPa | 0 mm | - | 227 W/m² | - |
| 1788189616 | 28.33° C | 71% | 1008.9 hPa | 0 mm | - | 239 W/m² | - |
| 1788189015 | 27.78° C | 72% | 1008.9 hPa | 0 mm | - | 269 W/m² | - |
| 1788188417 | 27.78° C | 72% | 1008.9 hPa | 0 mm | - | 244 W/m² | - |
| 1788187816 | 27.78° C | 71% | 1008.9 hPa | 0 mm | - | 254 W/m² | - |
| 1788187218 | 27.78° C | 73% | 1008.9 hPa | 0 mm | - | 296 W/m² | - |
| 1788186617 | 27.78° C | 73% | 1008.5 hPa | 0 mm | - | 236 W/m² | - |
| 1788186018 | 27.22° C | 74% | 1008.5 hPa | 0 mm | - | 260 W/m² | - |
| 1788185416 | 26.67° C | 75% | 1008.5 hPa | 0 mm | - | 291 W/m² | - |
| 1788184818 | 26.11° C | 76% | 1008.5 hPa | 0 mm | - | 230 W/m² | - |
| 1788184216 | 25.56° C | 78% | 1008.2 hPa | 0 mm | - | 215 W/m² | - |
| 1788183615 | 25° C | 79% | 1008.5 hPa | 0 mm | - | 211 W/m² | - |
| 1788183015 | 25° C | 80% | 1008.2 hPa | 0 mm | - | 46 W/m² | - |
* Rain latest hour (hover to see other rain measurements)
** Current wind speed in m/s (hover to see current wind gust speed)